{"data":{"norad_id":66925,"intl_designator":"2025-286A","name":"STARLINK-35945","alt_names":[],"object_type":"PAYLOAD","status":"ACTIVE","operator":null,"country":"US","launch_date":"2025-12-07","launch_site_code":"AFWTR","launch_vehicle":null,"mission":null,"orbit_class":"UNKNOWN","rcs_meters":null,"size_class":null,"mass_kg":null,"dimensions":null,"purposes":["comms"],"wikipedia_slug":null,"has_3d_model":false,"image_url":null,"decayed_at":null,"tle_current":{"epoch":"2026-09-19T06:09:37.797408Z","epoch_age_seconds":191526,"freshness":"STALE","line1":"1 66925U 25286A   26262.25668747  .00017636  00000+0  53205-3 0  9994","line2":"2 66925  53.1571 175.7431 0000995  83.1055 277.0061 15.34388600 45106","mean_motion":15.343886,"eccentricity":9.95e-5,"inclination_deg":53.1571,"raan_deg":175.7431,"arg_perigee_deg":83.1055,"mean_anomaly_deg":277.0061,"bstar":0.00053205,"rev_number":4510,"period_min":93.848455339149,"perigee_km":462.05645664403,"apogee_km":463.41779059463,"semimajor_km":6840.8741236193,"source":"CELESTRAK","updated_at":"2026-09-21T09:00:36.055380Z"}}}